Temp
-15 -15 -15 -15 -15 -15 -16 -16 -15 -15 -16 -18 -16 -15 -14 -16 -16 -15 -16 -15 -14 -13 -13 -12 -12 -11 -11 -12 -12 -11 -11 -13 -14 -14 -15 -15 -15 -15 -14 -14 -14 -14 -13 -13
-16 -15 -16 -16 -16 -16 -17 -16 -15 -15 -16 -17 -17 -17 -16 -17 -17 -17 -17 -16 -15 -14 -13 -12 -12 -12 -12 -12 -12 -11 -12 -13 -14 -15 -15 -15 -15 -15 -14 -14 -14 -14 -13 -13
-16 -16 -16 -16 -16 -17 -17 -16 -16 -16 -17 -17 -18 -16 -17 -17 -18 -17 -16 -16 -15 -14 -13 -12 -13 -12 -12 -12 -12 -11 -12 -13 -14 -15 -15 -15 -15 -15 -15 -15 -14 -14 -14 -14
-17 -17 -17 -17 -16 -17 -17 -18 -17 -17 -18 -17 -19 -17 -17 -17 -16 -17 -17 -16 -15 -14 -13 -12 -13 -12 -12 -12 -12 -12 -12 -13 -14 -15 -15 -15 -15 -15 -15 -15 -15 -14 -14 -14
-17 -17 -18 -18 -17 -18 -17 -18 -18 -18 -17 -18 -18 -19 -18 -18 -18 -18 -17 -16 -15 -13 -13 -13 -13 -12 -12 -12 -12 -12 -12 -13 -14 -15 -15 -15 -15 -15 -15 -15 -15 -14 -14 -14
-18 -19 -19 -18 -18 -18 -18 -18 -18 -18 -18 -18 -18 -19 -19 -18 -17 -16 -16 -15 -14 -13 -13 -13 -12 -12 -13 -13 -12 -12 -13 -14 -15 -16 -16 -16 -15 -15 -15 -15 -15 -14 -14 -14
-19 -19 -19 -20 -19 -19 -18 -18 -18 -18 -19 -18 -19 -18 -18 -17 -16 -15 -16 -15 -14 -14 -13 -13 -13 -12 -12 -13 -12 -12 -13 -14 -15 -16 -16 -16 -15 -15 -15 -15 -15 -14 -14 -14
-20 -19 -21 -20 -19 -19 -19 -19 -19 -19 -19 -19 -17 -17 -18 -17 -17 -17 -16 -15 -14 -14 -13 -13 -13 -13 -13 -14 -13 -13 -14 -15 -16 -16 -17 -16 -15 -16 -15 -15 -15 -14 -14 -14
-21 -21 -20 -21 -21 -20 -20 -19 -20 -19 -19 -19 -18 -17 -17 -15 -17 -17 -17 -16 -15 -14 -14 -13 -13 -13 -14 -14 -13 -14 -16 -15 -16 -16 -17 -16 -16 -16 -15 -15 -15 -15 -15 -14
-22 -21 -21 -21 -20 -20 -20 -21 -20 -19 -19 -19 -18 -18 -18 -17 -17 -17 -16 -16 -15 -14 -15 -15 -14 -14 -14 -15 -14 -16 -16 -16 -16 -16 -16 -16 -16 -16 -15 -15 -14 -15 -15 -14
-22 -22 -21 -21 -20 -21 -20 -20 -19 -19 -19 -19 -18 -18 -17 -16 -17 -17 -17 -16 -15 -15 -15 -15 -15 -15 -15 -15 -16 -16 -15 -15 -16 -16 -15 -16 -16 -16 -15 -15 -15 -15 -15 -15
-23 -23 -22 -22 -21 -21 -20 -20 -20 -19 -19 -19 -18 -18 -17 -17 -18 -17 -16 -16 -16 -16 -15 -16 -15 -15 -15 -15 -15 -15 -15 -15 -16 -15 -16 -15 -16 -16 -15 -15 -15 -15 -15 -15
-25 -23 -23 -22 -21 -21 -20 -20 -19 -19 -19 -19 -19 -18 -18 -18 -18 -17 -18 -17 -17 -16 -16 -16 -15 -15 -16 -16 -15 -16 -15 -15 -16 -16 -15 -16 -15 -16 -16 -16 -15 -15 -15 -15
-26 -25 -23 -22 -22 -22 -20 -20 -20 -19 -19 -18 -19 -19 -18 -18 -18 -17 -18 -18 -17 -17 -16 -16 -15 -16 -16 -16 -16 -16 -16 -15 -15 -15 -15 -15 -15 -16 -16 -16 -15 -15 -15 -15
-26 -25 -24 -22 -22 -21 -21 -20 -21 -20 -19 -19 -19 -19 -19 -18 -18 -18 -18 -18 -17 -17 -16 -16 -16 -16 -16 -17 -16 -16 -16 -15 -16 -15 -15 -15 -15 -16 -16 -16 -16 -15 -15 -14
-26 -25 -24 -22 -22 -21 -21 -21 -21 -20 -20 -20 -20 -19 -19 -19 -19 -18 -19 -18 -18 -17 -17 -16 -16 -16 -17 -17 -16 -16 -16 -16 -15 -15 -15 -15 -15 -15 -16 -16 -16 -16 -15 -15
-26 -25 -24 -23 -22 -22 -21 -21 -20 -21 -21 -20 -20 -19 -19 -19 -19 -19 -18 -18 -18 -17 -16 -16 -16 -16 -17 -17 -16 -16 -16 -15 -15 -15 -15 -15 -15 -15 -15 -16 -16 -16 -15 -15
-25 -25 -24 -22 -22 -22 -22 -22 -22 -22 -21 -21 -20 -20 -20 -20 -19 -19 -18 -18 -18 -17 -17 -16 -15 -16 -17 -16 -16 -17 -16 -16 -16 -15 -16 -15 -15 -16 -15 -16 -16 -15 -15 -15
-24 -24 -23 -23 -22 -22 -22 -22 -22 -22 -21 -21 -21 -20 -20 -19 -19 -19 -18 -18 -18 -17 -17 -17 -16 -16 -17 -17 -17 -16 -16 -16 -16 -15 -16 -16 -16 -16 -15 -15 -15 -15 -15 -15
-25 -24 -23 -23 -23 -23 -23 -22 -21 -22 -21 -21 -21 -20 -20 -20 -19 -19 -19 -18 -18 -17 -17 -17 -17 -17 -17 -17 -17 -17 -16 -16 -16 -16 -15 -15 -15 -15 -15 -15 -15 -15 -15 -15
-24 -24 -24 -24 -23 -23 -22 -22 -22 -22 -21 -21 -21 -21 -20 -20 -20 -19 -19 -18 -18 -18 -18 -17 -17 -17 -17 -16 -16 -17 -16 -16 -16 -16 -15 -14 -14 -14 -15 -14 -14 -15 -15 -15
-24 -24 -24 -23 -23 -23 -23 -22 -22 -22 -22 -22 -21 -21 -21 -20 -20 -19 -19 -19 -19 -18 -18 -18 -17 -17 -17 -17 -16 -16 -16 -15 -15 -15 -15 -15 -14 -14 -14 -15 -15 -15 -15 -15
-24 -24 -24 -24 -24 -23 -23 -23 -23 -22 -22 -22 -21 -21 -21 -20 -20 -20 -19 -19 -19 -19 -18 -18 -17 -17 -17 -17 -17 -17 -17 -16 -16 -15 -15 -14 -14 -14 -14 -14 -14 -14 -14 -15
-24 -24 -24 -24 -24 -24 -23 -23 -23 -22 -22 -22 -22 -21 -21 -21 -20 -20 -20 -19 -19 -19 -18 -18 -18 -18 -18 -18 -18 -18 -18 -17 -17 -17 -16 -16 -15 -15 -15 -15 -15 -15 -14 -15
-25 -25 -24 -24 -24 -24 -23 -23 -23 -22 -22 -22 -22 -21 -21 -21 -21 -20 -20 -20 -19 -19 -19 -19 -19 -19 -19 -19 -19 -19 -18 -18 -18 -18 -17 -17 -17 -16 -16 -15 -15 -15 -15 -16
-25 -25 -25 -24 -24 -24 -24 -23 -23 -23 -23 -22 -22 -22 -22 -21 -21 -21 -21 -21 -21 -21 -21 -20 -20 -20 -20 -20 -20 -20 -20 -20 -19 -19 -18 -18 -17 -17 -17 -17 -17 -17 -17 -17
Height
5659 5660 5660 5659 5658 5659 5658 5655 5657 5657 5658 5650 5650 5651 5656 5659 5661 5666 5671 5676 5681 5683 5688 5692 5695 5698 5704 5708 5708 5711 5717 5720 5720 5720 5722 5722 5726 5726 5725 5725 5724 5725 5727 5727
5650 5651 5652 5650 5650 5649 5647 5646 5647 5647 5645 5642 5645 5644 5645 5649 5652 5657 5662 5667 5671 5675 5679 5683 5686 5691 5695 5698 5698 5703 5709 5710 5712 5713 5716 5716 5719 5719 5719 5719 5719 5720 5721 5721
5642 5643 5643 5643 5643 5641 5640 5639 5638 5636 5634 5634 5631 5632 5638 5643 5647 5647 5650 5658 5662 5666 5670 5674 5678 5682 5687 5689 5691 5694 5699 5701 5704 5706 5708 5711 5712 5714 5714 5714 5713 5715 5716 5716
5635 5636 5635 5634 5634 5633 5633 5631 5629 5628 5626 5625 5630 5622 5630 5635 5637 5641 5641 5646 5651 5655 5661 5666 5670 5675 5679 5682 5684 5685 5690 5693 5696 5700 5702 5706 5707 5709 5709 5708 5709 5710 5709 5707
5630 5625 5625 5625 5627 5624 5626 5624 5624 5621 5619 5619 5622 5620 5622 5631 5632 5638 5630 5631 5640 5648 5653 5657 5662 5666 5670 5673 5674 5677 5679 5685 5689 5693 5696 5700 5702 5703 5704 5703 5705 5704 5703 5701
5617 5616 5614 5617 5617 5617 5617 5616 5615 5615 5614 5610 5616 5619 5618 5624 5623 5622 5624 5631 5637 5641 5646 5651 5654 5657 5661 5662 5664 5667 5670 5676 5681 5686 5690 5694 5696 5698 5699 5699 5700 5699 5698 5696
5605 5606 5608 5606 5608 5608 5608 5609 5609 5609 5608 5609 5611 5610 5612 5617 5615 5617 5622 5625 5630 5634 5638 5641 5646 5649 5652 5653 5654 5655 5661 5668 5673 5680 5684 5688 5690 5692 5694 5694 5696 5694 5693 5691
5597 5600 5601 5598 5598 5600 5599 5601 5603 5603 5605 5607 5606 5606 5613 5609 5614 5614 5616 5617 5622 5628 5630 5634 5637 5641 5641 5641 5643 5644 5653 5659 5666 5672 5677 5681 5685 5686 5688 5690 5691 5690 5689 5688
5586 5588 5588 5590 5591 5592 5595 5595 5600 5597 5599 5600 5604 5603 5603 5601 5605 5609 5605 5613 5615 5619 5622 5626 5629 5632 5633 5630 5630 5640 5645 5649 5659 5666 5670 5675 5679 5681 5683 5685 5685 5686 5685 5684
5575 5573 5579 5581 5581 5582 5586 5592 5593 5594 5593 5594 5598 5599 5601 5597 5599 5600 5604 5606 5609 5612 5615 5619 5622 5624 5623 5625 5631 5633 5638 5644 5652 5659 5663 5669 5673 5675 5679 5681 5681 5682 5681 5680
5559 5562 5573 5571 5576 5577 5580 5583 5585 5588 5589 5591 5594 5597 5596 5597 5595 5594 5597 5600 5602 5604 5608 5612 5616 5617 5620 5624 5625 5630 5633 5640 5647 5652 5657 5663 5668 5671 5673 5676 5677 5679 5678 5677
5547 5552 5556 5564 5569 5569 5572 5577 5580 5581 5586 5588 5590 5591 5585 5587 5586 5587 5591 5594 5597 5599 5603 5607 5609 5612 5616 5619 5622 5625 5631 5636 5642 5646 5653 5658 5662 5665 5668 5671 5673 5675 5676 5676
5537 5541 5546 5556 5562 5561 5567 5572 5574 5577 5581 5583 5586 5587 5583 5583 5585 5585 5587 5589 5591 5593 5596 5600 5603 5605 5611 5613 5618 5623 5627 5633 5637 5642 5648 5653 5657 5660 5663 5665 5667 5670 5671 5672
5526 5530 5538 5545 5549 5552 5558 5563 5568 5570 5574 5577 5580 5580 5576 5580 5580 5581 5584 5584 5586 5589 5590 5592 5596 5599 5604 5609 5613 5617 5623 5626 5632 5637 5642 5647 5651 5655 5658 5661 5662 5664 5666 5668
5520 5521 5529 5536 5544 5548 5549 5554 5562 5564 5568 5569 5572 5573 5573 5573 5575 5578 5578 5580 5581 5583 5585 5587 5588 5593 5598 5603 5608 5612 5615 5621 5627 5633 5638 5642 5645 5649 5653 5655 5656 5658 5661 5663
5514 5517 5523 5531 5537 5542 5549 5552 5554 5559 5560 5561 5564 5565 5568 5569 5571 5575 5575 5575 5577 5577 5578 5581 5583 5587 5592 5598 5602 5606 5610 5615 5619 5625 5630 5634 5638 5642 5646 5649 5651 5653 5654 5657
5510 5515 5522 5530 5531 5538 5541 5542 5547 5550 5553 5556 5559 5563 5568 5568 5569 5570 5570 5571 5572 5571 5572 5575 5577 5581 5585 5592 5595 5599 5606 5610 5613 5618 5623 5627 5631 5635 5638 5641 5644 5646 5648 5649
5511 5516 5521 5526 5528 5534 5533 5537 5543 5545 5549 5554 5557 5561 5563 5564 5565 5565 5566 5567 5567 5567 5567 5568 5571 5574 5576 5583 5589 5594 5599 5603 5607 5611 5616 5620 5624 5627 5630 5633 5636 5638 5640 5642
5509 5514 5516 5520 5524 5524 5532 5534 5540 5542 5548 5551 5553 5556 5559 5560 5561 5560 5561 5562 5563 5563 5564 5565 5565 5567 5570 5575 5581 5587 5592 5596 5600 5604 5607 5611 5615 5618 5621 5623 5626 5628 5631 5633
5509 5512 5514 5518 5521 5526 5530 5531 5536 5540 5544 5548 5550 5552 5554 5555 5556 5556 5556 5557 5558 5559 5560 5561 5562 5561 5564 5569 5575 5580 5584 5588 5592 5596 5598 5601 5604 5608 5611 5613 5616 5619 5621 5623
5509 5512 5513 5516 5521 5525 5527 5529 5533 5537 5545 5545 5547 5549 5550 5552 5552 5552 5552 5553 5554 5555 5556 5558 5558 5560 5562 5566 5569 5574 5576 5580 5583 5584 5586 5584 5588 5597 5600 5603 5606 5608 5609 5611
5513 5514 5516 5518 5521 5525 5526 5530 5533 5537 5540 5542 5543 5545 5547 5547 5547 5547 5548 5549 5550 5550 5552 5554 5554 5555 5558 5560 5564 5566 5566 5569 5571 5575 5577 5578 5581 5583 5590 5590 5591 5596 5597 5598
5513 5515 5517 5519 5520 5522 5525 5528 5532 5535 5538 5539 5540 5542 5542 5543 5543 5544 5544 5545 5546 5546 5548 5548 5549 5550 5551 5553 5552 5556 5559 5560 5561 5562 5565 5570 5571 5574 5575 5579 5577 5579 5580 5584
5508 5510 5513 5516 5519 5521 5525 5528 5531 5533 5536 5536 5538 5538 5538 5539 5539 5540 5541 5541 5541 5542 5543 5543 5544 5546 5546 5547 5547 5549 5551 5550 5553 5555 5557 5560 5558 5560 5563 5568 5568 5563 5570 5569
5505 5509 5511 5514 5517 5520 5523 5527 5529 5530 5532 5533 5534 5535 5535 5535 5536 5536 5536 5537 5537 5537 5538 5539 5540 5540 5541 5542 5543 5545 5545 5546 5546 5547 5547 5548 5549 5551 5553 5555 5556 5556 5556 5557
5504 5506 5509 5512 5515 5518 5520 5524 5525 5526 5528 5529 5530 5531 5532 5532 5533 5533 5533 5533 5533 5533 5534 5535 5536 5537 5537 5538 5539 5539 5540 5541 5541 5541 5541 5541 5542 5543 5542 5544 5545 5545 5545 5545
Wind_Speed
31 34 35 35 39 40 38 38 43 47 47 41 45 48 47 41 50 58 41 40 44 45 44 42 42 40 37 38 40 36 25 29 32 32 28 27 27 24 23 25 22 22 23 25
32 34 32 36 38 39 36 41 41 43 43 48 48 50 48 42 41 45 42 41 43 43 43 43 42 39 38 39 43 30 26 31 29 30 25 29 26 20 22 24 20 21 24 26
31 33 36 35 34 34 36 40 37 39 39 42 44 45 36 30 29 37 46 39 41 42 43 43 42 42 40 43 43 32 28 30 29 26 30 29 23 20 20 21 18 22 24 28
34 32 33 36 37 39 39 39 40 39 39 40 31 43 27 20 14 11 23 38 37 42 44 42 41 42 39 41 40 35 32 32 30 26 33 26 23 18 20 19 19 22 25 28
33 36 36 37 36 39 40 39 36 39 41 37 30 37 34 16 16 17 35 40 41 37 38 38 40 40 39 40 41 37 36 32 31 28 33 27 22 19 18 18 19 21 24 25
38 36 38 39 41 38 38 38 37 37 35 40 34 32 29 17 21 35 35 26 32 34 36 37 39 39 40 42 42 39 41 33 32 30 33 30 22 18 16 18 19 21 22 23
38 40 38 37 41 39 39 35 33 32 27 23 13 20 18 23 29 32 22 26 29 30 32 33 36 38 39 40 41 45 42 37 33 31 32 30 24 19 17 19 18 20 20 19
37 35 25 31 35 34 31 30 28 26 23 22 24 20 17 30 30 28 31 29 27 27 30 31 33 35 37 34 40 44 30 40 35 33 32 31 24 20 18 18 17 20 18 18
37 32 34 31 35 36 23 27 20 25 25 29 22 17 25 11 29 33 35 28 30 25 26 27 27 26 26 33 41 23 25 37 36 36 37 32 21 22 18 20 16 21 18 17
35 42 35 26 30 25 19 22 27 26 27 26 23 24 18 21 22 24 23 27 28 26 23 24 22 20 23 25 20 23 33 35 36 37 35 32 25 20 19 22 18 21 18 16
42 37 30 35 25 20 19 22 20 23 20 20 14 21 26 21 29 34 27 24 25 24 22 26 23 21 20 21 24 27 34 36 40 41 34 30 21 21 21 22 20 21 18 16
42 38 37 34 35 16 18 21 21 24 22 23 22 22 19 4 9 17 23 22 23 23 23 26 25 26 27 25 27 30 32 32 39 37 32 27 22 20 22 21 22 21 19 17
37 40 34 29 36 30 20 21 24 21 27 28 23 28 28 23 17 20 20 21 21 20 24 26 27 27 34 29 30 30 34 37 36 31 30 27 24 20 21 21 22 22 22 19
32 34 34 32 35 37 19 22 26 28 23 25 25 20 15 13 16 12 15 18 20 20 17 23 27 28 33 34 32 36 41 39 39 34 31 28 26 20 21 21 21 23 23 21
27 32 41 32 29 33 31 20 28 25 23 23 25 26 25 22 20 17 18 18 22 23 21 22 25 30 35 37 38 42 47 46 39 35 32 31 28 22 21 24 24 25 26 26
24 26 40 34 32 33 17 27 28 32 29 28 23 20 25 23 25 22 16 16 20 24 23 25 26 33 38 38 42 45 42 31 39 38 31 33 32 27 26 27 27 26 28 28
19 22 33 30 40 34 10 15 28 18 11 20 23 26 22 24 23 22 19 17 16 16 19 26 24 31 41 42 42 33 36 40 30 27 37 35 33 32 30 30 29 28 29 30
19 22 17 23 31 26 16 24 18 18 16 14 18 19 21 23 20 19 17 16 13 13 15 19 24 28 42 48 44 44 42 38 37 35 32 37 38 36 35 35 34 31 29 32
19 10 11 6 15 32 27 25 22 22 19 17 18 19 21 21 17 17 17 17 14 13 11 18 17 32 36 45 45 41 45 37 35 35 36 38 44 42 40 40 39 37 35 35
9 10 13 6 19 20 22 24 23 26 25 17 18 18 18 18 17 15 14 14 14 15 15 16 11 26 34 46 43 42 40 42 41 41 39 39 47 47 46 44 43 42 41 41
5 7 17 15 16 17 17 23 27 25 21 20 19 18 18 18 17 15 14 14 16 18 17 16 14 11 32 37 37 41 43 47 44 44 47 50 47 45 46 47 46 45 45 41
8 14 13 11 13 17 19 13 15 16 12 11 13 15 17 18 17 17 15 16 17 17 19 20 19 19 17 27 46 47 47 55 40 46 50 57 44 48 50 58 65 52 49 43
15 17 13 16 15 15 16 15 12 9 7 8 12 12 15 17 17 15 15 16 16 16 18 19 20 21 19 21 16 22 24 38 48 50 52 56 55 55 55 56 63 64 61 53
19 20 14 16 17 16 17 15 13 8 6 4 11 14 14 14 16 15 13 13 16 17 17 16 18 19 17 16 17 17 21 19 29 34 41 52 48 50 47 59 67 51 55 65
14 21 22 18 17 17 15 14 9 5 7 8 8 12 14 13 14 14 13 11 13 12 10 9 9 9 10 11 13 17 20 23 27 29 30 31 35 57 64 64 71 66 65 56
11 9 19 19 18 18 17 14 11 12 12 15 16 15 13 11 11 12 7 5 7 8 7 8 11 11 13 15 16 17 10 12 14 20 26 30 33 34 32 33 35 37 38 37
Wind_Direction
270 272 271 269 267 265 268 275 274 268 272 240 253 259 262 257 253 243 246 252 250 248 246 244 240 236 236 239 243 240 248 246 249 258 261 259 260 266 275 280 263 257 263 263
274 278 268 267 271 274 277 278 276 274 275 263 259 262 264 254 256 248 249 249 245 248 245 240 239 236 237 237 244 247 241 247 250 255 250 253 260 266 278 276 256 262 263 265
277 278 277 271 271 277 280 278 285 286 279 267 256 259 268 263 272 267 248 246 243 244 243 240 239 239 232 238 243 250 245 249 249 250 245 248 260 266 278 268 264 265 267 268
276 275 275 277 278 278 278 284 284 291 282 275 264 262 257 234 219 269 250 240 236 236 236 238 238 239 237 242 248 250 247 243 242 238 242 247 260 269 275 264 268 266 276 279
278 277 275 274 278 277 276 276 280 283 287 273 266 256 261 240 238 247 248 239 224 234 235 233 236 239 241 244 250 247 247 237 230 230 239 247 257 266 271 265 264 276 283 280
280 278 276 275 272 269 271 274 275 282 286 275 269 272 269 238 217 229 254 247 238 238 233 233 235 239 245 245 250 250 244 226 220 225 235 245 253 263 261 259 267 282 279 277
285 282 276 273 268 266 266 269 275 282 276 295 274 246 275 241 232 233 253 244 236 240 239 239 241 246 252 252 255 257 245 223 215 220 232 242 250 262 255 257 265 282 274 279
284 277 275 280 273 267 265 268 263 276 265 255 248 258 223 231 240 238 246 246 237 229 235 239 242 248 247 250 255 253 251 220 210 215 228 240 245 265 248 252 268 280 272 269
276 268 260 257 259 266 258 260 276 276 271 261 247 247 220 213 242 239 245 247 250 238 237 241 242 245 250 243 251 249 226 215 208 215 229 238 244 258 251 249 265 275 267 264
262 262 255 239 250 256 262 246 245 256 263 263 234 251 273 276 228 251 252 252 244 235 232 233 234 246 253 245 246 213 206 208 210 216 225 230 240 246 245 245 255 273 264 260
257 254 243 240 229 260 259 245 247 245 246 234 233 226 244 238 253 245 247 249 250 246 241 231 234 247 255 232 214 211 214 211 210 217 218 228 234 240 241 242 248 264 261 259
252 250 247 234 226 240 231 241 236 235 235 245 235 221 247 159 319 243 236 245 252 257 245 234 238 241 235 217 215 214 218 211 214 217 221 220 227 236 240 242 246 255 252 247
250 242 240 225 220 223 210 229 241 241 227 242 238 245 259 282 284 248 254 257 261 265 255 239 241 239 224 217 217 214 210 210 223 219 216 219 224 228 240 242 245 250 252 249
250 234 227 218 212 223 223 232 234 226 223 234 228 236 267 273 263 258 238 254 262 262 259 240 237 231 220 216 209 210 216 221 223 215 220 222 230 227 238 244 244 249 250 253
266 228 212 215 209 217 229 209 231 234 226 230 231 236 243 250 257 275 257 260 261 257 258 248 234 225 215 212 212 217 224 217 224 220 225 228 232 225 234 245 247 245 248 248
268 226 210 209 216 197 190 231 231 230 245 236 226 243 233 250 258 260 264 270 265 265 263 245 240 223 216 214 217 224 235 237 234 220 230 236 236 230 230 244 252 252 249 252
252 218 203 211 224 221 205 225 212 220 221 223 235 241 251 256 262 265 266 264 270 277 269 241 254 236 216 216 225 227 230 240 235 225 230 234 237 238 236 241 249 250 253 252
176 190 215 200 212 210 209 237 229 230 232 239 237 245 256 260 266 263 260 256 269 273 248 255 259 237 225 216 219 227 235 247 239 229 236 239 238 240 241 245 250 247 253 256
189 139 86 175 207 197 218 234 231 233 240 241 241 245 248 260 260 261 256 258 264 253 250 238 256 240 232 216 228 227 233 243 241 232 243 241 240 242 243 244 247 250 253 256
190 147 122 133 204 204 205 227 233 235 239 232 233 239 248 252 260 265 264 256 247 253 258 273 268 232 227 216 227 237 239 242 241 245 239 241 242 243 245 245 247 252 256 258
157 171 148 154 157 180 203 221 226 224 232 223 234 238 245 253 258 265 268 265 250 248 254 263 263 246 215 223 230 233 242 244 240 245 229 227 234 246 248 250 251 252 253 258
167 158 165 171 200 218 221 218 193 201 204 221 236 242 248 252 259 265 270 264 263 271 269 266 275 275 248 234 233 236 234 235 238 248 237 243 238 234 240 244 245 245 253 254
197 185 178 190 193 185 183 188 200 207 206 235 253 263 263 259 262 274 271 268 266 271 277 276 273 275 272 262 245 244 241 241 235 245 224 227 219 235 227 241 228 244 248 250
204 204 207 196 184 174 181 190 187 200 228 275 255 258 270 272 271 274 282 278 268 271 274 278 265 264 267 273 264 260 275 258 248 248 247 234 229 233 237 237 242 238 240 240
197 219 222 225 203 202 195 197 208 225 257 302 300 270 268 273 278 281 272 261 246 257 260 271 270 272 289 304 305 292 279 269 257 255 252 254 253 239 243 249 249 261 263 252
230 221 225 222 221 213 217 223 242 274 279 292 301 307 278 263 261 262 268 279 284 290 282 274 283 294 302 304 306 296 281 291 262 253 249 248 249 252 247 247 249 252 253 254